Weather History for Greenville Downtown, SC

Change the Weather History Date:

Sunday, December 11, 2011

  Actual Average Record
Temperature  
Mean Temperature 40 °F -  
Max Temperature 48 °F 52 °F 75 °F (2007)
Min Temperature 32 °F 35 °F 28 °F (2013)
Degree Days  
Heating Degree Days 25    
Moisture  
Dew Point 23 °F    
Average Humidity 54    
Maximum Humidity 69    
Minimum Humidity 40    
Precipitation  
Precipitation 0.00 in - - ()
Sea Level Pressure  
Sea Level Pressure 30.52 in    
Wind  
Wind Speed 11 mph (NE)    
Max Wind Speed 15 mph    
Max Gust Speed 23 mph    
Visibility 10 miles    
Events      
Averages and records for this station are not official NWS values.
T = Trace of Precipitation, MM = Missing Value Source: NWS Daily Summary

Daily Weather History Graph

Daily Weather History Graph

Search for Another Location

Airport:

Trip Planner

Search our weather history database for the weather conditions in past years. The results will help you decide how hot, cold, wet, or windy it might be!

Date:

Astronomy

Dec. 11, 2011 Rise Set
Actual Time 7:26 AM EST 5:18 PM EST
Civil Twilight 6:58 AM EST 5:46 PM EST
Nautical Twilight 6:27 AM EST 6:17 PM EST
Astronomical Twilight 5:56 AM EST 6:48 PM EST
Moon 6:27 PM EST (12/11) 8:13 AM EST (12/11)
Length of Visible Light 10h 47m
Length of Day
9h 51m
Full, 99% of the Moon is Illuminated
Dec 11
Full
Dec 17
Last Quarter
Dec 24
New
Jan 1
First Quarter
Jan 9
Full

Hourly Weather History & Observations

Time (EST) Temp. Windchill Dew Point Humidity Pressure Visibility Wind Dir Wind Speed Gust Speed Precip Events Conditions
12:53 AM 36.0 °F 28.5 °F 23.0 °F 59% 30.47 in 10.0 mi NE 10.4 mph - N/A   Clear
1:53 AM 34.0 °F 25.5 °F 23.0 °F 64% 30.47 in 10.0 mi NNE 11.5 mph - N/A   Clear
2:53 AM 34.0 °F 25.5 °F 21.9 °F 61% 30.48 in 10.0 mi NNE 11.5 mph - N/A   Clear
3:53 AM 32.0 °F 23.6 °F 23.0 °F 69% 30.50 in 10.0 mi NNE 10.4 mph - N/A   Clear
4:53 AM 33.1 °F 23.9 °F 23.0 °F 66% 30.50 in 10.0 mi NNE 12.7 mph - N/A   Clear
5:53 AM 32.0 °F 23.0 °F 21.9 °F 66% 30.51 in 10.0 mi NNE 11.5 mph - N/A   Clear
6:53 AM 33.1 °F 23.4 °F 21.9 °F 64% 30.53 in 10.0 mi NE 13.8 mph - N/A   Clear
7:53 AM 33.1 °F 25.5 °F 21.0 °F 61% 30.56 in 10.0 mi NNE 9.2 mph - N/A   Clear
8:53 AM 37.0 °F 28.1 °F 19.0 °F 48% 30.57 in 10.0 mi ENE 15.0 mph 23.0 mph N/A   Clear
10:53 AM 42.1 °F 35.7 °F 21.0 °F 43% 30.60 in 10.0 mi ENE 11.5 mph - N/A   Clear
12:53 PM 46.0 °F 40.2 °F 23.0 °F 40% 30.54 in 10.0 mi ENE 12.7 mph - N/A   Clear
1:53 PM 46.0 °F 39.9 °F 24.1 °F 42% 30.51 in 10.0 mi NNE 13.8 mph - N/A   Clear
2:53 PM 48.0 °F - 25.0 °F 41% 30.50 in 10.0 mi NE 10.4 mph - N/A   Clear
3:53 PM 46.9 °F - 25.0 °F 42% 30.51 in 10.0 mi NE 9.2 mph - N/A   Clear
4:53 PM 44.1 °F 39.0 °F 26.1 °F 49% 30.50 in 10.0 mi NE 9.2 mph - N/A   Clear
5:53 PM 43.0 °F 38.8 °F 26.1 °F 51% 30.51 in 10.0 mi NE 6.9 mph - N/A   Clear
6:53 PM 42.1 °F 35.7 °F 26.1 °F 53% 30.51 in 10.0 mi NE 11.5 mph - N/A   Clear
7:53 PM 42.1 °F 36.1 °F 25.0 °F 51% 30.53 in 10.0 mi NE 10.4 mph - N/A   Clear
8:53 PM 42.1 °F 35.7 °F 25.0 °F 51% 30.53 in 10.0 mi ENE 11.5 mph - N/A   Clear
9:53 PM 41.0 °F 34.7 °F 25.0 °F 53% 30.54 in 10.0 mi ENE 10.4 mph - N/A   Partly Cloudy
10:53 PM 39.9 °F 31.8 °F 24.1 °F 53% 30.53 in 10.0 mi NE 15.0 mph 19.6 mph N/A   Mostly Cloudy
11:53 PM 39.9 °F 33.4 °F 23.0 °F 51% 30.54 in 10.0 mi NE 10.4 mph - N/A   Overcast